Regional Weather Roundup
Issued by NWS

Home | Current Version | Previous Version | Graphics & Text | Print | Product List | Glossary Off
Versions: 1 2 3 4 5 6 7 8 9 10 11 12 13 14 15 16 17 18 19 20 21 22 23 24 25 26 27 28 29 30 31 32 33 34 35 36 37 38 39 40 41 42 43 44 45 46 47 48 49 50

841
ASUS43 KMPX 262010
RWRMN
WEATHER ROUNDUP FOR MINNESOTA
NATIONAL WEATHER SERVICE TWIN CITIES/CHANHASSEN MN
300 PM CDT SUN MAR 26 2017


NOTE: "FAIR" INDICATES FEW OR NO CLOUDS BELOW 12,000 FEET WITH NO
SIGNIFICANT WEATHER AND/OR OBSTRUCTIONS TO VISIBILITY. N/A MEANS
CURRENT SKY AND/OR WEATHER CONDITIONS ARE NOT AVAILABLE.

MNZ060>063-068>070-262100-
   Twin Cities Metro

CITY           SKY/WX    TMP DP  RH WIND       PRES   REMARKS
TWIN CITIES    CLOUDY    42  36  79 N6        29.90F
ST PAUL        CLOUDY    42  38  85 NW7       29.91F
CRYSTAL        CLOUDY    42  34  73 N6        29.90S
BLAINE         CLOUDY    43  39  87 N6        29.90S
LAKEVILLE      CLOUDY    39  39 100 N5        29.90S
EDEN PRAIRIE   CLOUDY    43  36  76 N7        29.89F
SOUTH ST PAUL  CLOUDY    41  39  91 N5        29.90F
LAKE ELMO      CLOUDY    41  37  87 NW9       29.91S
$$
MNZ001>005-007-008-013>017-022>024-027-028-262100-
   Northwest Minnesota

CITY           SKY/WX    TMP DP  RH WIND       PRES   REMARKS
BEMIDJI        PTSUNNY   43  32  65 CALM      29.93F
HALLOCK        PTSUNNY   39  36  87 CALM      29.96S
ROSEAU         MOSUNNY   41  36  81 W3        29.95S
WARROAD        CLOUDY    41  36  81 W3        29.95F
THIEF RVR FALL CLOUDY   N/A N/A N/A SW6       29.95F
CROOKSTON      PTSUNNY   43  37  81 SW6       29.96F
FOSSTON        CLOUDY    48  36  61 W6        29.95S
DETROIT LAKES  CLOUDY    45  34  65 CALM      29.94S
MOORHEAD       CLOUDY    43  37  81 W3        29.97S
PARK RAPIDS    CLOUDY    45  31  58 W6        29.92S
MAHNOMEN       MOCLDY    45  35  67 NW3       29.94F
$$
MNZ006-009>011-018-025>026-262100-
   North Central Minnesota

CITY           SKY/WX    TMP DP  RH WIND       PRES   REMARKS
BAUDETTE       CLOUDY    47  34  60 VRB3      29.93F
FLAG ISLAND    MOSUNNY   36  32  87 CALM      29.95S
INTL FALLS     CLOUDY    44  32  62 N6        29.94F
WASKISH        CLOUDY    43  34  70 W7        29.94F
BIG FORK       MOSUNNY   46  32  57 NW3       29.92F
LONGVILLE      CLOUDY    43  34  70 NW3       29.92F
GRAND RAPIDS   CLOUDY    41  32  70 VRB5      29.94F
CRANE LAKE     MOSUNNY   45  30  57 CALM      29.94F
ORR            CLOUDY    45  28  53 CALM      29.90F
COOK           CLOUDY    43  32  65 CALM      29.92F
WALKER         CLOUDY    40  32  70 SE3       29.93S
$$
MNZ012-019>021-037-262100-
   Northeast Minnesota

CITY           SKY/WX    TMP DP  RH WIND       PRES   REMARKS
DULUTH         CLOUDY    36  34  92 NE5       29.91F
ELY            CLOUDY    36  28  75 CALM      29.92F
HIBBING        CLOUDY    38  32  79 N5        29.92F
EVELETH        CLOUDY    40  31  70 N3        29.92F
DULUTH HARBOR  CLOUDY    34  34 100 CALM      29.96S
TWO HARBORS    CLOUDY    39  34  81 SE5       29.92S
SILVER BAY     LGT RAIN  36  34  93 E5        29.92S
GRAND MARAIS     N/A     35  33  92 E6        29.95F WCI  30
G MARAIS ARPRT DRIZZLE   32  28  86 N5        29.91F WCI  27
$$
MNZ029>031-032-039>041-046>048-054>057-064-262100-
   West Central Minnesota

CITY           SKY/WX    TMP DP  RH WIND       PRES   REMARKS
FERGUS FALLS   CLOUDY    45  36  70 CALM      29.97S
WHEATON        CLOUDY    45  36  70 W10       29.96S
MORRIS         CLOUDY    48  37  66 N3        29.91F
ALEXANDRIA     CLOUDY    46  35  65 MISG      29.92F
ELBOW LAKE     CLOUDY    44  35  69 CALM      29.93S
WADENA         MOSUNNY   45  34  65 CALM      29.92S
GLENWOOD       PTSUNNY   46  36  66 N8        29.92F
APPLETON       CLOUDY    46  36  66 CALM      29.93F
BENSON         CLOUDY    48  32  53 N3        29.94F
ORTONVILLE     CLOUDY    45  37  76 W5        29.93F
MADISON        CLOUDY    46  39  76 N6        29.94S
WILLMAR        CLOUDY    45  37  76 N8        29.93S
$$
MNZ033>034-036-042>043-049>051-058-059-262100-
   Central Minnesota

CITY           SKY/WX    TMP DP  RH WIND       PRES   REMARKS
ST CLOUD       CLOUDY    40  36  86 N8        29.91F
SAUK CENTRE    CLOUDY    44  35  69 N7        29.91F
PAYNESVILLE      N/A     40  39  97 N7        29.92F
AITKIN         CLOUDY    43  34  70 N3        29.91F
PINE RIVER     CLOUDY    43  34  70 NE5       29.96S
BRAINERD       CLOUDY    42  33  70 N8        29.92F
STAPLES        CLOUDY    43  32  65 NE3       29.92F
LONG PRAIRIE   CLOUDY    43  34  70 N6        29.91F
LITTLE FALLS   CLOUDY    41  32  70 CALM      29.92F
LITCHFIELD     CLOUDY    41  37  87 N9        29.92S
BUFFALO        CLOUDY    42  35  77 N7        29.91F
MAPLE LAKE     CLOUDY    41  38  91 N6        29.92S
HUTCHINSON     CLOUDY    42  38  86 N7        29.92S
$$
MNZ037-044-045-052-053-262100-
   East Central Minnesota

CITY           SKY/WX    TMP DP  RH WIND       PRES   REMARKS
PRINCETON      CLOUDY    43  37  81 N8        29.91F
MORA           DRIZZLE   37  32  81 N5        29.93F
CAMBRIDGE      CLOUDY    41  36  81 N6        29.90S
RUSH CITY      CLOUDY    39  36  87 N5        29.91S
MOOSE LAKE     CLOUDY    36  32  87 N6        29.91S
CLOQUET        CLOUDY    36  34  93 N3        29.91F
MCGREGOR       CLOUDY    37  34  87 N6        29.92F
$$
MNZ071>073-080-081-089-090-097-098-262100-
   Southwest Minnesota

CITY           SKY/WX    TMP DP  RH WIND       PRES   REMARKS
MONTEVIDEO     CLOUDY    45  37  76 NE6       29.95S
GRANITE FALLS  CLOUDY    44  38  80 NW8       29.94S
CANBY          CLOUDY    42  38  86 CALM      29.95S
MARSHALL       CLOUDY    41  37  86 N8        29.93F
REDWOOD FALLS  CLOUDY    44  35  70 N8        29.91F
OLIVIA         CLOUDY    43  36  75 NE7       29.91S
PIPESTONE      CLOUDY    43  34  70 NE6       29.92S
WINDOM         CLOUDY    41  37  87 NW9       29.91R
WORTHINGTON    CLOUDY    41  37  86 N9        29.92R
JACKSON        CLOUDY    41  36  81 N6        29.90S
TRACY          CLOUDY    42  38  84 N9        29.92S
SLAYTON        CLOUDY    40  37  89 N7        29.92F
$$
MNZ065>067-074>077-082>085-091>093-262100-
   South Central Minnesota

CITY           SKY/WX    TMP DP  RH WIND       PRES   REMARKS
MANKATO        CLOUDY    41  37  86 N8        29.90S
NEW ULM        CLOUDY    41  36  81 N7        29.90F
ST JAMES       CLOUDY    41  37  87 NW8       29.92S
FAIRMONT       CLOUDY    41  38  89 N12       29.90S
GLENCOE        CLOUDY    42  39  87 N7        29.90S
FARIBAULT      CLOUDY    41  39  93 N5        29.89F
OWATONNA       CLOUDY    41  37  87 N6        29.88F
WASECA         CLOUDY    41  37  87 N8        29.90S
ALBERT LEA     CLOUDY    39  39 100 N8        29.87S
$$
MNZ078>079-086>088-094>096-262100-
   Southeast Minnesota

CITY           SKY/WX    TMP DP  RH WIND       PRES   REMARKS
ROCHESTER      CLOUDY    40  39  97 N12       29.87R
RED WING       CLOUDY    43  37  81 N3        29.88S
STANTON        CLOUDY    42  38  86 N8        29.88S
DODGE CENTER   CLOUDY    39  37  93 NW9       29.87S FOG
WINONA         CLOUDY    41  37  87 CALM      29.88S
AUSTIN         CLOUDY    41  37  87 N7        29.86F
PRESTON        CLOUDY    40  38  91 NE5       29.86S
$$
ABBREVIATIONS USED IN REMARKS
   TC - TEMPERATURES IN CELSIUS
  WCI - WIND CHILL INDEX
   HX - HEAT INDEX
  VSB - VISIBILITY
$$




USA.gov is the U.S. government's official web portal to all federal, state and local government web resources and services.